Tracking 32936 objects as of 16-Jan-2026
HD Live streaming from Space Station
objects crossing your sky now

DELTA 1 DEB

Track DELTA 1 DEB now!
10-day predictions


NORAD ID: 9040
Int'l Code: 1975-004DE
Perigee: 703.0 km
Apogee: 770.5 km
Inclination: 98.0 °
Period: 99.4 minutes
Semi major axis: 7107 km
RCS: 0.0254 m2 (small)
Launch date: January 22, 1975
Source: United States (US)
Launch site: AIR FORCE WESTERN TEST RANGE (AFWTR)

Note: This is SATELLITE DEBRIS
Your satellite tracking list
Your tracking list is empty




NASA's NSSDC Master Catalog

Two Line Element Set (TLE):
1 09040U 75004DE  26015.15830436  .00000142  00000-0  48093-4 0  9998
2 09040  97.9556  92.0431 0047458  88.7397 271.9234 14.48780638591209
Source of the keplerian elements: AFSPC